When you browse on this site, cookies collect data to enhance your experience and personalize the content and advertising you see.
Visit our Privacy Policy to learn more. By continuing to use the site, you agree to this use of cookies and data.
  • In United Kingdom
  • List of Countries
  • For 7 days
  • Water Temperature
  • Satellite Maps
  • Weather Map
  • Weather Widgets
  • user-avatar
    Login

    Hourly Weather Serowe

    Today, 22 January, Tuesday

    Time Temperature Precipitation Wind Pressure Humidity
    00:00 +23°C° 0 mm 2 mps 668 mmHg 47%
    01:00 +21°C° 0 mm 2 mps 667 mmHg 49%
    02:00 +22°C° 0 mm 1 mps 667 mmHg 48%
    03:00 +20°C° 0 mm 2 mps 667 mmHg 48%
    04:00 +19°C° 0 mm 2 mps 667 mmHg 49%
    05:00 +19°C° 0 mm 2 mps 667 mmHg 49%
    06:00 +20°C° 0 mm 2 mps 667 mmHg 49%
    07:00 +23°C° 0 mm 2 mps 668 mmHg 49%
    08:00 +24°C° 0 mm 3 mps 668 mmHg 49%
    09:00 +26°C° 0 mm 3 mps 668 mmHg 40%
    10:00 +29°C° 0 mm 3 mps 669 mmHg 32%
    11:00 +32°C° 0 mm 4 mps 669 mmHg 23%
    12:00 +33°C° 0 mm 4 mps 669 mmHg 20%
    13:00 +35°C° 0 mm 4 mps 668 mmHg 18%
    14:00 +36°C° 0 mm 5 mps 668 mmHg 15%
    15:00 +35°C° 0 mm 5 mps 667 mmHg 15%
    16:00 +35°C° 0 mm 4 mps 667 mmHg 15%
    17:00 +35°C° 0 mm 4 mps 666 mmHg 15%
    18:00 +33°C° 0 mm 3 mps 666 mmHg 18%
    19:00 +29°C° 0 mm 2 mps 665 mmHg 22%
    20:00 +27°C° 0 mm 1 mps 665 mmHg 25%
    21:00 +26°C° 0 mm 2 mps 665 mmHg 26%
    22:00 +26°C° 0 mm 2 mps 665 mmHg 27%
    23:00 +25°C° 0 mm 2 mps 665 mmHg 28%

    Tomorrow, 23 January, Wednesday

    Time Temperature Precipitation Wind Pressure Humidity
    00:00 +24°C° 0 mm 2 mps 665 mmHg 29%
    01:00 +24°C° 0 mm 2 mps 665 mmHg 30%
    02:00 +23°C° 0 mm 2 mps 664 mmHg 30%
    03:00 +21°C° 0 mm 2 mps 664 mmHg 31%
    04:00 +21°C° 0 mm 2 mps 665 mmHg 32%
    05:00 +22°C° 0 mm 1 mps 665 mmHg 33%
    06:00 +24°C° 0 mm 2 mps 665 mmHg 31%
    07:00 +25°C° 0 mm 2 mps 666 mmHg 30%
    08:00 +27°C° 0 mm 3 mps 667 mmHg 28%
    09:00 +29°C° 0 mm 3 mps 667 mmHg 25%
    10:00 +32°C° 0 mm 2 mps 667 mmHg 22%
    11:00 +35°C° 0 mm 2 mps 668 mmHg 19%
    12:00 +36°C° 0 mm 2 mps 667 mmHg 17%
    13:00 +37°C° 0 mm 2 mps 667 mmHg 16%
    14:00 +39°C° 0 mm 2 mps 666 mmHg 15%
    15:00 +38°C° 0 mm 2 mps 666 mmHg 14%
    16:00 +38°C° 0 mm 3 mps 665 mmHg 14%
    17:00 +38°C° 0 mm 3 mps 664 mmHg 14%
    18:00 +36°C° 0 mm 3 mps 664 mmHg 17%
    19:00 +34°C° 0 mm 3 mps 664 mmHg 21%
    20:00 +30°C° 0 mm 2 mps 663 mmHg 24%
    21:00 +29°C° 0 mm 3 mps 664 mmHg 28%
    22:00 +28°C° 0 mm 3 mps 664 mmHg 32%
    23:00 +27°C° 0 mm 3 mps 664 mmHg 36%

    Day after tomorrow, 24 January, Thursday

    Time Temperature Precipitation Wind Pressure Humidity
    00:00 +27°C° 0 mm 3 mps 664 mmHg 38%
    01:00 +26°C° 0 mm 2 mps 663 mmHg 39%
    02:00 +25°C° 0 mm 2 mps 663 mmHg 41%
    03:00 +25°C° 0 mm 2 mps 663 mmHg 42%
    04:00 +24°C° 0 mm 2 mps 663 mmHg 43%
    05:00 +24°C° 0 mm 1 mps 663 mmHg 44%
    06:00 +25°C° 0 mm 2 mps 664 mmHg 41%
    07:00 +27°C° 0 mm 2 mps 665 mmHg 38%
    08:00 +28°C° 0 mm 3 mps 666 mmHg 36%
    09:00 +30°C° 0 mm 3 mps 667 mmHg 32%
    10:00 +33°C° 0 mm 3 mps 667 mmHg 28%
    11:00 +35°C° 0 mm 3 mps 668 mmHg 24%
    12:00 +36°C° 0 mm 3 mps 667 mmHg 22%
    13:00 +38°C° 0 mm 3 mps 667 mmHg 20%
    14:00 +39°C° 0 mm 3 mps 666 mmHg 19%
    15:00 +39°C° 0 mm 3 mps 666 mmHg 19%
    16:00 +38°C° 0 mm 3 mps 665 mmHg 19%
    17:00 +38°C° 0 mm 3 mps 665 mmHg 19%
    18:00 +36°C° 0 mm 4 mps 665 mmHg 23%
    19:00 +34°C° 0 mm 4 mps 665 mmHg 28%
    20:00 +32°C° 0 mm 4 mps 665 mmHg 33%
    21:00 +30°C° 0 mm 4 mps 665 mmHg 36%
    22:00 +29°C° 0 mm 4 mps 666 mmHg 39%
    23:00 +28°C° 0 mm 5 mps 666 mmHg 42%

    25 January, Friday

    Time Temperature Precipitation Wind Pressure Humidity
    00:00 +27°C° 0 mm 5 mps 666 mmHg 42%
    01:00 +27°C° 0 mm 5 mps 665 mmHg 43%
    02:00 +26°C° 0 mm 5 mps 665 mmHg 43%
    03:00 +25°C° 0 mm 5 mps 665 mmHg 45%
    04:00 +25°C° 0 mm 5 mps 665 mmHg 48%
    05:00 +23°C° 0 mm 5 mps 665 mmHg 50%
    06:00 +23°C° 0 mm 5 mps 666 mmHg 55%
    07:00 +23°C° 0 mm 6 mps 667 mmHg 59%
    08:00 +23°C° 0 mm 6 mps 667 mmHg 64%
    09:00 +24°C° 0 mm 6 mps 668 mmHg 65%
    10:00 +25°C° 0 mm 5 mps 668 mmHg 67%
    11:00 +25°C° 0 mm 5 mps 668 mmHg 68%
    12:00 +27°C° 0 mm 4 mps 668 mmHg 61%
    13:00 +29°C° 0 mm 4 mps 667 mmHg 55%
    14:00 +30°C° 0 mm 4 mps 667 mmHg 48%
    15:00 +32°C° 0 mm 4 mps 666 mmHg 46%
    16:00 +32°C° 0 mm 4 mps 666 mmHg 44%
    17:00 +33°C° 0 mm 4 mps 666 mmHg 43%
    18:00 +30°C° 0 mm 3 mps 665 mmHg 48%
    19:00 +28°C° 0 mm 3 mps 665 mmHg 54%
    20:00 +26°C° 0 mm 3 mps 665 mmHg 60%
    21:00 +25°C° 0 mm 3 mps 665 mmHg 59%
    22:00 +25°C° 0 mm 3 mps 666 mmHg 59%
    23:00 +24°C° 0 mm 3 mps 667 mmHg 58%

    26 January, Saturday

    Time Temperature Precipitation Wind Pressure Humidity
    00:00 +23°C° 0 mm 4 mps 667 mmHg 59%
    01:00 +23°C° 0 mm 4 mps 667 mmHg 59%
    02:00 +23°C° 0 mm 5 mps 667 mmHg 59%
    03:00 +23°C° 0 mm 5 mps 667 mmHg 59%
    04:00 +23°C° 0 mm 6 mps 666 mmHg 60%
    05:00 +23°C° 0 mm 6 mps 666 mmHg 60%
    06:00 +24°C° 0 mm 6 mps 667 mmHg 55%
    07:00 +26°C° 0 mm 6 mps 667 mmHg 51%
    08:00 +27°C° 0 mm 5 mps 668 mmHg 46%
    09:00 +29°C° 0 mm 5 mps 668 mmHg 41%
    10:00 +32°C° 0 mm 5 mps 669 mmHg 35%
    11:00 +34°C° 0 mm 4 mps 669 mmHg 30%
    12:00 +36°C° 0 mm 4 mps 668 mmHg 28%
    13:00 +37°C° 0 mm 3 mps 668 mmHg 26%
    14:00 +38°C° 0 mm 2 mps 668 mmHg 24%
    15:00 +38°C° 0 mm 2 mps 667 mmHg 24%
    16:00 +37°C° 0 mm 2 mps 666 mmHg 25%
    17:00 +37°C° 0 mm 2 mps 665 mmHg 26%
    18:00 +35°C° 0.1 mm 2 mps 665 mmHg 31%
    19:00 +32°C° 0.1 mm 2 mps 665 mmHg 35%
    20:00 +30°C° 0.1 mm 2 mps 666 mmHg 40%
    21:00 +28°C° 0.9 mm 3 mps 666 mmHg 48%
    22:00 +27°C° 0.9 mm 3 mps 666 mmHg 56%
    23:00 +25°C° 0.9 mm 3 mps 666 mmHg 65%

    27 January, Sunday

    Time Temperature Precipitation Wind Pressure Humidity
    00:00 +25°C° 1.2 mm 4 mps 666 mmHg 67%
    01:00 +23°C° 1.2 mm 5 mps 666 mmHg 70%
    02:00 +23°C° 1.2 mm 5 mps 666 mmHg 72%
    03:00 +23°C° 0 mm 6 mps 666 mmHg 76%
    04:00 +22°C° 0 mm 6 mps 666 mmHg 81%
    05:00 +21°C° 0 mm 6 mps 666 mmHg 85%
    06:00 +21°C° 0 mm 6 mps 666 mmHg 83%
    07:00 +22°C° 0 mm 6 mps 666 mmHg 82%
    08:00 +22°C° 0 mm 7 mps 667 mmHg 80%
    09:00 +24°C° 0 mm 6 mps 667 mmHg 71%
    10:00 +27°C° 0 mm 6 mps 668 mmHg 62%
    11:00 +29°C° 0 mm 6 mps 668 mmHg 54%
    12:00 +32°C° 0 mm 5 mps 668 mmHg 48%
    13:00 +34°C° 0 mm 5 mps 667 mmHg 42%
    14:00 +36°C° 0 mm 4 mps 667 mmHg 36%
    15:00 +35°C° 0 mm 4 mps 666 mmHg 37%
    16:00 +35°C° 0 mm 4 mps 666 mmHg 37%
    17:00 +35°C° 0 mm 4 mps 665 mmHg 38%
    18:00 +32°C° 0.2 mm 4 mps 665 mmHg 45%
    19:00 +29°C° 0.2 mm 5 mps 665 mmHg 52%
    20:00 +27°C° 0.2 mm 5 mps 664 mmHg 59%
    21:00 +26°C° 0.5 mm 6 mps 665 mmHg 64%
    22:00 +24°C° 0.5 mm 6 mps 666 mmHg 69%
    23:00 +22°C° 0.5 mm 6 mps 666 mmHg 74%
    Show more